• In Uzbekistan
  • List of Countries
  • For 7 days
  • Water Temperature
  • Satellite Maps
  • Weather Map
  • Weather Widgets
  • user-avatar
    Login

    Hourly Weather Gagra

    Today, 23 October, Tuesday

    Time Temperature Precipitation Wind Pressure Humidity
    00:00 +16°C° 0.5 mm 3 mps 737 mmHg 89%
    01:00 +14°C° 0.5 mm 3 mps 737 mmHg 89%
    02:00 +14°C° 0.5 mm 3 mps 737 mmHg 88%
    03:00 +15°C° 0 mm 2 mps 737 mmHg 89%
    04:00 +15°C° 0.3 mm 2 mps 737 mmHg 88%
    05:00 +15°C° 0.3 mm 2 mps 737 mmHg 87%
    06:00 +14°C° 0.3 mm 2 mps 737 mmHg 86%
    07:00 +16°C° 0.1 mm 2 mps 737 mmHg 82%
    08:00 +17°C° 0.1 mm 2 mps 737 mmHg 78%
    09:00 +18°C° 0 mm 2 mps 736 mmHg 73%
    10:00 +19°C° 0.1 mm 2 mps 736 mmHg 70%
    11:00 +20°C° 0.1 mm 3 mps 736 mmHg 68%
    12:00 +20°C° 0.1 mm 3 mps 736 mmHg 65%
    13:00 +20°C° 0.5 mm 3 mps 736 mmHg 66%
    14:00 +20°C° 0.5 mm 2 mps 735 mmHg 67%
    15:00 +20°C° 0.5 mm 2 mps 735 mmHg 68%
    16:00 +18°C° 0.2 mm 2 mps 735 mmHg 73%
    17:00 +17°C° 0.2 mm 2 mps 734 mmHg 79%
    18:00 +16°C° 0.2 mm 1 mps 734 mmHg 85%
    19:00 +15°C° 0.1 mm 2 mps 734 mmHg 83%
    20:00 +15°C° 0.1 mm 2 mps 734 mmHg 80%
    21:00 +15°C° 0.1 mm 2 mps 734 mmHg 78%
    22:00 +14°C° 0.2 mm 3 mps 733 mmHg 78%
    23:00 +14°C° 0.2 mm 3 mps 733 mmHg 79%

    Tomorrow, 24 October, Wednesday

    Time Temperature Precipitation Wind Pressure Humidity
    00:00 +14°C° 0.2 mm 3 mps 733 mmHg 79%
    01:00 +14°C° 0.3 mm 4 mps 732 mmHg 79%
    02:00 +14°C° 0.3 mm 4 mps 732 mmHg 79%
    03:00 +14°C° 0.3 mm 4 mps 731 mmHg 80%
    04:00 +14°C° 0.2 mm 4 mps 730 mmHg 79%
    05:00 +14°C° 0.2 mm 5 mps 730 mmHg 79%
    06:00 +15°C° 0.2 mm 5 mps 729 mmHg 79%
    07:00 +16°C° 0.1 mm 5 mps 729 mmHg 76%
    08:00 +16°C° 0.1 mm 6 mps 728 mmHg 74%
    09:00 +17°C° 0.1 mm 6 mps 728 mmHg 72%
    10:00 +19°C° 0.1 mm 6 mps 727 mmHg 69%
    11:00 +20°C° 0.1 mm 7 mps 726 mmHg 66%
    12:00 +21°C° 0.1 mm 7 mps 726 mmHg 62%
    13:00 +20°C° 0.1 mm 7 mps 725 mmHg 63%
    14:00 +20°C° 0.1 mm 7 mps 725 mmHg 63%
    15:00 +20°C° 0.1 mm 7 mps 724 mmHg 64%
    16:00 +18°C° 1.4 mm 7 mps 724 mmHg 72%
    17:00 +16°C° 1.4 mm 7 mps 724 mmHg 79%
    18:00 +15°C° 1.4 mm 7 mps 723 mmHg 87%
    19:00 +15°C° 3.6 mm 7 mps 723 mmHg 88%
    20:00 +15°C° 3.6 mm 7 mps 723 mmHg 88%
    21:00 +15°C° 3.6 mm 7 mps 723 mmHg 89%
    22:00 +15°C° 4.8 mm 7 mps 722 mmHg 91%
    23:00 +15°C° 4.8 mm 7 mps 722 mmHg 92%

    Day after tomorrow, 25 October, Thursday

    Time Temperature Precipitation Wind Pressure Humidity
    00:00 +15°C° 4.8 mm 7 mps 722 mmHg 94%
    01:00 +15°C° 5.5 mm 6 mps 721 mmHg 95%
    02:00 +15°C° 5.5 mm 6 mps 721 mmHg 95%
    03:00 +15°C° 5.5 mm 6 mps 720 mmHg 96%
    04:00 +14°C° 5.7 mm 5 mps 720 mmHg 96%
    05:00 +14°C° 5.7 mm 5 mps 720 mmHg 96%
    06:00 +13°C° 5.7 mm 4 mps 720 mmHg 96%
    07:00 +13°C° 5.1 mm 4 mps 720 mmHg 95%
    08:00 +13°C° 5.1 mm 4 mps 720 mmHg 95%
    09:00 +13°C° 5.1 mm 3 mps 720 mmHg 95%
    10:00 +12°C° 3.3 mm 4 mps 721 mmHg 95%
    11:00 +12°C° 3.3 mm 5 mps 722 mmHg 95%
    12:00 +11°C° 3.3 mm 6 mps 723 mmHg 95%
    13:00 +12°C° 0.8 mm 5 mps 724 mmHg 92%
    14:00 +11°C° 0.8 mm 4 mps 724 mmHg 89%
    15:00 +11°C° 0.8 mm 4 mps 725 mmHg 86%
    16:00 +10°C° 1.2 mm 4 mps 726 mmHg 88%
    17:00 +10°C° 1.2 mm 3 mps 726 mmHg 90%
    18:00 +9°C° 1.2 mm 3 mps 727 mmHg 92%
    19:00 +9°C° 0.9 mm 3 mps 728 mmHg 92%
    20:00 +8°C° 0.9 mm 3 mps 728 mmHg 93%
    21:00 +8°C° 0.9 mm 3 mps 729 mmHg 93%
    22:00 +8°C° 0.8 mm 3 mps 729 mmHg 92%
    23:00 +8°C° 0.8 mm 3 mps 729 mmHg 92%

    26 October, Friday

    Time Temperature Precipitation Wind Pressure Humidity
    00:00 +8°C° 0.8 mm 3 mps 730 mmHg 92%
    01:00 +8°C° 0.9 mm 3 mps 730 mmHg 92%
    02:00 +8°C° 0.9 mm 3 mps 730 mmHg 92%
    03:00 +7°C° 0.9 mm 3 mps 730 mmHg 92%
    04:00 +7°C° 0.9 mm 3 mps 731 mmHg 92%
    05:00 +7°C° 0.9 mm 3 mps 731 mmHg 92%
    06:00 +7°C° 0.9 mm 3 mps 731 mmHg 91%
    07:00 +8°C° 0.6 mm 3 mps 732 mmHg 90%
    08:00 +8°C° 0.6 mm 3 mps 732 mmHg 88%
    09:00 +8°C° 0.6 mm 3 mps 733 mmHg 86%
    10:00 +9°C° 0.4 mm 3 mps 733 mmHg 84%
    11:00 +10°C° 0.4 mm 3 mps 733 mmHg 82%
    12:00 +10°C° 0.4 mm 3 mps 733 mmHg 79%
    13:00 +10°C° 1.2 mm 4 mps 732 mmHg 82%
    14:00 +10°C° 1.2 mm 4 mps 732 mmHg 85%
    15:00 +8°C° 1.2 mm 5 mps 732 mmHg 88%
    16:00 +8°C° 4.5 mm 6 mps 733 mmHg 90%
    17:00 +8°C° 4.5 mm 7 mps 733 mmHg 92%
    18:00 +7°C° 4.5 mm 8 mps 734 mmHg 94%
    19:00 +8°C° 1.7 mm 7 mps 735 mmHg 93%
    20:00 +9°C° 1.7 mm 6 mps 735 mmHg 93%
    21:00 +9°C° 1.7 mm 5 mps 736 mmHg 93%
    22:00 +8°C° 0.2 mm 4 mps 736 mmHg 92%
    23:00 +8°C° 0.2 mm 4 mps 737 mmHg 91%

    27 October, Saturday

    Time Temperature Precipitation Wind Pressure Humidity
    00:00 +8°C° 0.2 mm 3 mps 737 mmHg 90%
    01:00 +7°C° 0 mm 3 mps 738 mmHg 88%
    02:00 +7°C° 0 mm 3 mps 738 mmHg 87%
    03:00 +5°C° 0 mm 3 mps 738 mmHg 85%
    04:00 +5°C° 0 mm 3 mps 739 mmHg 84%
    05:00 +5°C° 0 mm 3 mps 739 mmHg 83%
    06:00 +5°C° 0 mm 4 mps 740 mmHg 82%
    07:00 +6°C° 0 mm 4 mps 740 mmHg 81%
    08:00 +8°C° 0 mm 4 mps 740 mmHg 80%
    09:00 +10°C° 0 mm 4 mps 740 mmHg 79%
    10:00 +11°C° 0 mm 4 mps 740 mmHg 78%
    11:00 +12°C° 0 mm 4 mps 740 mmHg 77%
    12:00 +13°C° 0 mm 5 mps 740 mmHg 76%
    13:00 +13°C° 0 mm 4 mps 740 mmHg 77%
    14:00 +13°C° 0 mm 4 mps 740 mmHg 78%
    15:00 +13°C° 0 mm 4 mps 739 mmHg 78%
    16:00 +12°C° 0 mm 4 mps 739 mmHg 79%
    17:00 +10°C° 0 mm 4 mps 740 mmHg 79%
    18:00 +8°C° 0 mm 4 mps 740 mmHg 80%
    19:00 +8°C° 0 mm 4 mps 740 mmHg 77%
    20:00 +8°C° 0 mm 4 mps 740 mmHg 75%
    21:00 +8°C° 0 mm 4 mps 740 mmHg 72%
    22:00 +8°C° 0 mm 4 mps 740 mmHg 71%
    23:00 +8°C° 0 mm 5 mps 740 mmHg 71%

    28 October, Sunday

    Time Temperature Precipitation Wind Pressure Humidity
    00:00 +8°C° 0 mm 5 mps 740 mmHg 70%
    01:00 +8°C° 0 mm 5 mps 740 mmHg 69%
    02:00 +8°C° 0 mm 5 mps 740 mmHg 68%
    03:00 +8°C° 0 mm 4 mps 740 mmHg 67%
    04:00 +8°C° 0 mm 4 mps 740 mmHg 66%
    05:00 +8°C° 0 mm 4 mps 740 mmHg 65%
    06:00 +8°C° 0 mm 4 mps 740 mmHg 64%
    07:00 +11°C° 0 mm 4 mps 740 mmHg 66%
    08:00 +12°C° 0 mm 4 mps 740 mmHg 69%
    09:00 +13°C° 0 mm 4 mps 741 mmHg 72%
    10:00 +15°C° 0 mm 4 mps 741 mmHg 70%
    11:00 +17°C° 0 mm 3 mps 741 mmHg 69%
    12:00 +18°C° 0 mm 3 mps 740 mmHg 67%
    13:00 +18°C° 0 mm 3 mps 740 mmHg 69%
    14:00 +18°C° 0 mm 2 mps 740 mmHg 70%
    15:00 +18°C° 0 mm 2 mps 740 mmHg 72%
    16:00 +17°C° 0 mm 2 mps 740 mmHg 72%
    17:00 +15°C° 0 mm 2 mps 740 mmHg 73%
    18:00 +14°C° 0 mm 2 mps 740 mmHg 74%
    19:00 +14°C° 0 mm 2 mps 740 mmHg 72%
    20:00 +12°C° 0 mm 3 mps 740 mmHg 70%
    21:00 +12°C° 0 mm 3 mps 740 mmHg 68%
    22:00 +12°C° 0 mm 3 mps 740 mmHg 66%
    23:00 +12°C° 0 mm 3 mps 740 mmHg 65%

    29 October, Monday

    Time Temperature Precipitation Wind Pressure Humidity
    00:00 +12°C° 0 mm 3 mps 740 mmHg 63%
    01:00 +12°C° 0 mm 3 mps 740 mmHg 62%
    02:00 +12°C° 0 mm 3 mps 740 mmHg 60%
    03:00 +12°C° 0 mm 3 mps 739 mmHg 59%
    04:00 +12°C° 0 mm 3 mps 739 mmHg 59%
    05:00 +12°C° 0 mm 3 mps 739 mmHg 58%
    06:00 +12°C° 0 mm 3 mps 739 mmHg 58%
    07:00 +13°C° 0 mm 3 mps 739 mmHg 61%
    08:00 +16°C° 0 mm 3 mps 739 mmHg 64%
    09:00 +17°C° 0 mm 3 mps 739 mmHg 68%
    10:00 +19°C° 0 mm 2 mps 739 mmHg 66%
    11:00 +21°C° 0 mm 1 mps 739 mmHg 65%
    12:00 +23°C° 0 mm 1 mps 738 mmHg 64%
    13:00 +23°C° 0 mm 1 mps 738 mmHg 65%
    14:00 +23°C° 0 mm 1 mps 738 mmHg 67%
    15:00 +23°C° 0 mm 1 mps 738 mmHg 68%
    16:00 +21°C° 0 mm 1 mps 738 mmHg 67%
    17:00 +18°C° 0 mm 2 mps 738 mmHg 66%
    18:00 +16°C° 0 mm 2 mps 738 mmHg 65%
    19:00 +14°C° 0 mm 3 mps 737 mmHg 61%
    20:00 +14°C° 0 mm 3 mps 737 mmHg 57%
    21:00 +13°C° 0 mm 3 mps 737 mmHg 52%
    22:00 +13°C° 0 mm 4 mps 737 mmHg 51%
    23:00 +13°C° 0 mm 4 mps 737 mmHg 49%
    Show more